Weather History for Eveleth, MN

Change the Weather History Date:

Monday, January 21, 2013

  Actual Average Record
Temperature  
Mean Temperature -14 °F -  
Max Temperature -9 °F 16 °F 38 °F (1989)
Min Temperature -20 °F 0 °F -31 °F (2011)
Degree Days  
Heating Degree Days 80    
Moisture  
Dew Point -24 °F    
Average Humidity 63    
Maximum Humidity 70    
Minimum Humidity 53    
Precipitation  
Precipitation 0.00 in - - ()
Sea Level Pressure  
Sea Level Pressure 30.12 in    
Wind  
Wind Speed 9 mph (WNW)    
Max Wind Speed 18 mph    
Max Gust Speed 24 mph    
Visibility 9 miles    
Events      
Averages and records for this station are not official NWS values.
T = Trace of Precipitation, MM = Missing Value Source: NWS Daily Summary

Daily Weather History Graph

Daily Weather History Graph

Search for Another Location

Airport:

Trip Planner

Search our weather history database for the weather conditions in past years. The results will help you decide how hot, cold, wet, or windy it might be!

Date:

Astronomy

Jan. 21, 2013 Rise Set
Actual Time 7:47 AM CST 4:55 PM CST
Civil Twilight 7:13 AM CST 5:29 PM CST
Nautical Twilight 6:36 AM CST 6:07 PM CST
Astronomical Twilight 5:59 AM CST 6:43 PM CST
Moon 12:34 PM CST (1/21) 3:17 AM CST (1/21)
Length of Visible Light 10h 15m
Length of Day
9h 07m
Waxing Gibbous, 75% of the Moon is Illuminated
Jan 21
Waxing Gibbous
Jan 26
Full
Feb 3
Last Quarter
Feb 10
New
Feb 17
First Quarter

Hourly Weather History & Observations

Time (CST) Temp. Windchill Dew Point Humidity Pressure Visibility Wind Dir Wind Speed Gust Speed Precip Events Conditions
12:10 AM -11.2 °F -30.1 °F -20.2 °F 64% 30.11 in 10.0 mi WNW 10.4 mph 16.1 mph N/A   Mostly Cloudy
12:30 AM -13.0 °F -31.3 °F -22.0 °F 64% 30.11 in 10.0 mi WNW 9.2 mph - N/A   Scattered Clouds
12:49 AM -13.0 °F -28.6 °F -22.0 °F 64% 30.12 in 10.0 mi WNW 6.9 mph - N/A   Clear
1:10 AM -13.0 °F -36.0 °F -22.0 °F 64% 30.12 in 10.0 mi NW 15.0 mph 19.6 mph N/A   Scattered Clouds
1:30 AM -14.8 °F -29.1 °F -22.0 °F 70% 30.12 in 10.0 mi WNW 5.8 mph - N/A   Scattered Clouds
1:49 AM -14.8 °F -33.5 °F -23.8 °F 64% 30.12 in 10.0 mi NW 9.2 mph - N/A   Scattered Clouds
2:10 AM -14.8 °F -34.6 °F -23.8 °F 64% 30.12 in 10.0 mi WNW 10.4 mph 17.3 mph N/A   Clear
2:29 AM -14.8 °F -32.2 °F -23.8 °F 64% 30.12 in 10.0 mi West 8.1 mph - N/A   Clear
2:50 AM -16.6 °F -37.9 °F -23.8 °F 70% 30.13 in 10.0 mi WNW 11.5 mph 17.3 mph N/A   Scattered Clouds
3:09 AM -16.6 °F -35.7 °F -25.6 °F 64% 30.12 in 7.0 mi WNW 9.2 mph - N/A   Mostly Cloudy
3:29 AM -16.6 °F -36.8 °F -25.6 °F 64% 30.12 in 5.0 mi WNW 10.4 mph - N/A   Haze
3:50 AM -16.6 °F -35.7 °F -25.6 °F 64% 30.12 in 10.0 mi WNW 9.2 mph - N/A   Scattered Clouds
4:10 AM -16.6 °F -36.8 °F -25.6 °F 64% 30.12 in 10.0 mi WNW 10.4 mph - N/A   Clear
4:29 AM -16.6 °F -35.7 °F -25.6 °F 64% 30.12 in 10.0 mi WNW 9.2 mph - N/A   Clear
4:50 AM -16.6 °F -35.7 °F -25.6 °F 64% 30.12 in 10.0 mi West 9.2 mph - N/A   Clear
5:10 AM -16.6 °F -34.4 °F -25.6 °F 64% 30.12 in 10.0 mi West 8.1 mph - N/A   Clear
5:29 AM -16.6 °F -34.4 °F -25.6 °F 64% 30.12 in 10.0 mi West 8.1 mph - N/A   Clear
5:50 AM -18.4 °F -35.1 °F -25.6 °F 70% 30.12 in 10.0 mi West 6.9 mph - N/A   Clear
6:10 AM -18.4 °F -33.4 °F -27.4 °F 63% 30.12 in 10.0 mi West 5.8 mph - N/A   Clear
6:29 AM -18.4 °F -35.1 °F -27.4 °F 63% 30.12 in 10.0 mi West 6.9 mph - N/A   Clear
6:50 AM -20.2 °F -37.3 °F -27.4 °F 69% 30.12 in 10.0 mi West 6.9 mph - N/A   Clear
7:10 AM -18.4 °F -36.6 °F -27.4 °F 63% 30.12 in 10.0 mi WNW 8.1 mph - N/A   Clear
7:29 AM -20.2 °F -37.3 °F -27.4 °F 69% 30.13 in 10.0 mi West 6.9 mph - N/A   Scattered Clouds
7:50 AM -20.2 °F -37.3 °F -27.4 °F 69% 30.13 in 10.0 mi West 6.9 mph - N/A   Clear
8:10 AM -20.2 °F -35.5 °F -27.4 °F 69% 30.14 in 10.0 mi WNW 5.8 mph - N/A   Clear
8:29 AM -20.2 °F -33.5 °F -27.4 °F 69% 30.14 in 10.0 mi West 4.6 mph - N/A   Clear
8:50 AM -20.2 °F -35.5 °F -27.4 °F 69% 30.14 in 10.0 mi WNW 5.8 mph - N/A   Clear
9:10 AM -18.4 °F -36.6 °F -27.4 °F 63% 30.14 in - WNW 8.1 mph - N/A   Clear
9:29 AM -16.6 °F -32.9 °F -25.6 °F 64% 30.14 in - WNW 6.9 mph - N/A   Clear
9:50 AM -16.6 °F -36.8 °F -27.4 °F 58% 30.15 in - WNW 10.4 mph - N/A   Clear
10:10 AM -16.6 °F -38.9 °F -25.6 °F 64% 30.15 in - WNW 12.7 mph 18.4 mph N/A   Clear
10:29 AM -16.6 °F -38.9 °F -25.6 °F 64% 30.15 in - WNW 12.7 mph 18.4 mph N/A   Scattered Clouds
10:50 AM -14.8 °F -39.1 °F -25.6 °F 58% 30.15 in - WNW 16.1 mph 19.6 mph N/A   Overcast
11:09 AM -14.8 °F -35.6 °F -25.6 °F 58% 30.14 in - WNW 11.5 mph 16.1 mph N/A   Overcast
11:30 AM -14.8 °F -38.3 °F -25.6 °F 58% 30.13 in - NW 15.0 mph 21.9 mph N/A   Overcast
11:49 AM -13.0 °F -35.2 °F -25.6 °F 53% 30.13 in - WNW 13.8 mph 24.2 mph N/A   Overcast
12:10 PM -13.0 °F -36.8 °F -25.6 °F 53% 30.12 in 7.0 mi WNW 16.1 mph 21.9 mph N/A   Overcast
12:30 PM -13.0 °F -34.3 °F -23.8 °F 59% 30.12 in 7.0 mi NW 12.7 mph 23.0 mph N/A   Overcast
12:49 PM -13.0 °F -34.3 °F -23.8 °F 59% 30.11 in 7.0 mi WNW 12.7 mph 19.6 mph N/A   Overcast
1:10 PM -11.2 °F -32.9 °F -23.8 °F 54% 30.11 in 7.0 mi WNW 13.8 mph 18.4 mph N/A   Overcast
1:30 PM -9.4 °F -28.9 °F -22.0 °F 54% 30.10 in 7.0 mi WNW 11.5 mph - N/A   Overcast
1:49 PM -9.4 °F -28.9 °F -22.0 °F 54% 30.10 in 7.0 mi WNW 11.5 mph 17.3 mph N/A   Overcast
2:10 PM -9.4 °F -27.9 °F -22.0 °F 54% 30.10 in 10.0 mi WNW 10.4 mph 18.4 mph N/A   Overcast
2:30 PM -9.4 °F -33.5 °F -22.0 °F 54% 30.10 in 7.0 mi West 18.4 mph 23.0 mph N/A   Overcast
2:49 PM -9.4 °F -28.9 °F -22.0 °F 54% 30.10 in 7.0 mi West 11.5 mph 18.4 mph N/A   Overcast
3:10 PM -9.4 °F -31.4 °F -22.0 °F 54% 30.10 in 10.0 mi WNW 15.0 mph 19.6 mph N/A   Overcast
3:30 PM -9.4 °F -28.9 °F -20.2 °F 59% 30.10 in 5.0 mi West 11.5 mph - N/A   Haze
3:49 PM -9.4 °F -27.9 °F -20.2 °F 59% 30.10 in 4.0 mi West 10.4 mph 17.3 mph N/A   Haze
4:10 PM -9.4 °F -25.6 °F -20.2 °F 59% 30.10 in 10.0 mi West 8.1 mph 18.4 mph N/A   Mostly Cloudy
4:30 PM -9.4 °F -26.8 °F -18.4 °F 65% 30.11 in 10.0 mi West 9.2 mph - N/A   Scattered Clouds
4:49 PM -9.4 °F -25.6 °F -18.4 °F 65% 30.11 in 10.0 mi West 8.1 mph - N/A   Scattered Clouds
5:10 PM -11.2 °F -26.4 °F -20.2 °F 64% 30.11 in 10.0 mi West 6.9 mph - N/A   Clear
5:30 PM -13.0 °F -27.0 °F -22.0 °F 64% 30.11 in 10.0 mi West 5.8 mph - N/A   Clear
5:49 PM -13.0 °F -27.0 °F -22.0 °F 64% 30.12 in 10.0 mi West 5.8 mph - N/A   Clear
6:09 PM -13.0 °F -25.1 °F -22.0 °F 64% 30.12 in 10.0 mi West 4.6 mph - N/A   Clear
6:30 PM -13.0 °F -30.0 °F -22.0 °F 64% 30.12 in 10.0 mi West 8.1 mph - N/A   Clear
6:49 PM -13.0 °F -28.6 °F -23.8 °F 59% 30.12 in 10.0 mi West 6.9 mph - N/A   Clear
7:09 PM -13.0 °F -28.6 °F -23.8 °F 59% 30.12 in 10.0 mi West 6.9 mph - N/A   Clear
7:30 PM -13.0 °F -28.6 °F -23.8 °F 59% 30.12 in 10.0 mi West 6.9 mph - N/A   Clear
7:49 PM -14.8 °F -29.1 °F -23.8 °F 64% 30.12 in 10.0 mi West 5.8 mph - N/A   Clear
8:10 PM -14.8 °F -27.2 °F -23.8 °F 64% 30.12 in 10.0 mi West 4.6 mph - N/A   Clear
8:29 PM -14.8 °F -27.2 °F -23.8 °F 64% 30.13 in 10.0 mi West 4.6 mph - N/A   Clear
8:50 PM -14.8 °F -29.1 °F -23.8 °F 64% 30.12 in 10.0 mi West 5.8 mph - N/A   Clear
9:10 PM -14.8 °F -29.1 °F -23.8 °F 64% 30.13 in 10.0 mi West 5.8 mph - N/A   Clear
9:29 PM -14.8 °F -33.5 °F -22.0 °F 70% 30.14 in 10.0 mi West 9.2 mph - N/A   Clear
9:49 PM -14.8 °F -33.5 °F -22.0 °F 70% 30.14 in 10.0 mi WNW 9.2 mph - N/A   Clear
10:10 PM -14.8 °F -30.8 °F -22.0 °F 70% 30.14 in 10.0 mi WNW 6.9 mph - N/A   Clear
10:29 PM -14.8 °F -34.6 °F -22.0 °F 70% 30.15 in 10.0 mi WNW 10.4 mph - N/A   Clear
10:49 PM -16.6 °F -31.3 °F -23.8 °F 70% 30.15 in 10.0 mi WNW 5.8 mph - N/A   Clear
11:10 PM -16.6 °F -29.3 °F -23.8 °F 70% 30.16 in 10.0 mi WNW 4.6 mph - N/A   Clear
11:29 PM -16.6 °F -29.3 °F -23.8 °F 70% 30.15 in 10.0 mi WNW 4.6 mph - N/A   Scattered Clouds
11:49 PM -16.6 °F -31.3 °F -23.8 °F 70% 30.15 in 10.0 mi WNW 5.8 mph - N/A   Overcast